OneWeb SL0369

operational
NORAD ID: 49295 Int'l Des: 2021-090 Owner: ONEWEBN Country: UK Constellation: oneweb
LEOCIRCULARPOLARONEWEB_TYPE

About OneWeb SL0369

Description loading...

Live Position

Loading 3D Globe...

Upcoming Passes

Altitude History

Altitude vs Time

uPlot chart will show altitude changes over time

Two-Line Element Set

1 49295U 21090S 25258.04282746 .00000022 00000-0 23104-4 0 9994
2 49295 87.9289 359.6898 0001730 99.7265 260.4063 13.19725357190128
Epoch: Sep 15, 2025 • Age: 14 hours

Current Status

Altitude 1198.8 km
Velocity 7.25 km/s
Sub-Earth Point -33.08°S, 36.5°W
Launch Date Oct 14, 2021
Age 3.9 years
Type internet

Technical Details

Classification Payload
Mass 148.00 kg
Dry Mass 140.00 kg
Total Mass 148.00 kg
Length 1.30 m
Diameter 1.00 m
Span 5.00 m
Shape Trapezoid+2 pan
Manufacturer ONEWUS
Bus Type ARROW
Phase Status In Orbit
Owner/State ONEWEBN/UK

Large Constellations

Loading constellations...